Starlink 31022

operational
NORAD ID: 58633 Int'l Des: 2023-203 Owner: SPXS Country: US Constellation: starlink
LEOCIRCULAR

About Starlink 31022

Description loading...

Live Position

Loading 3D Globe...

Upcoming Passes

Altitude History

Altitude vs Time

uPlot chart will show altitude changes over time

Two-Line Element Set

1 58633U 23203R 25303.79488888 .00000338 00000-0 22778-4 0 9992
2 58633 43.0017 84.2892 0001673 274.3001 85.7659 15.25912752104889
Epoch: Oct 30, 2025 • Age: 12 hours

Current Status

Altitude 500.3 km
Velocity 7.62 km/s
Sub-Earth Point -43.15°S, 158.79°W
Launch Date Dec 23, 2023
Age 1.8 years
Type internet

Technical Details

Classification Payload
Mass 730.00 kg
Dry Mass 700.00 kg
Total Mass 730.00 kg
Length 0.30 m
Diameter 4.10 m
Span 29.00 m
Shape Box + pan
Manufacturer SPXS
Bus Type Starlink V2M
Phase Status In Orbit
Owner/State SPXS/US

Large Constellations

Loading constellations...